Погода в Козенце

Италия     39°18′34″N   16°15′02″E
темп.,
°C
ветер,
м/с
пор.,
м/с
влажн.,
%
обл.,
%
осадки,
мм/ч
давл.,
гПа
погр.,
м
26 октября, вт
вт2623:00+13св349695 0.5 1018167
02:00+13св3496100 1.3 1017165
05:00+12св3496100 0.7 1017174
08:00+12ссв349799 0.9 1017189
11:00+13ссв349593 0.1 1018208
14:00+14ссв238693 0.1 1017338
17:00+15ссв3380100 0.0 1017226
20:00+12св2392100 0.1 101866
27 октября, ср
ср2723:00+11св3495100 0.0 101998
02:00+11св3393100 0.0 101974
05:00+10св3387100 0.0 102063
08:00+10св3481100 0.0 1020100
11:00+15с3361100 0.0 1020527
14:00+17ссз336155 0.0 1019735
17:00+14с3471100 0.0 1019236
20:00+11всв337398 0.0 102153
28 октября, чт
чт2823:00+10св3585100 0.0 102192
02:00+9св3378100 0.0 102058
05:00+9св3370100 0.0 101959
08:00+9св457414 0.0 1019113
11:00+17св364397 0.0 1018846
14:00+18всв374393 0.0 10161115
17:00+15св355989 0.0 1015232
20:00+10всв357467 0.0 1017110
29 октября, пт
пт2923:00+11св358298 0.1 1017252
02:00+11св4785100 0.4 1015287
05:00+11св3492100 2.3 1014150
08:00+12св2598100 8.5 1014260
11:00+15в3987100 0.3 1014875
14:00+15вюв2888100 0.7 1013681
17:00+15ю148546 0.7 1014379
20:00+13юз129999 3.0 1016184
30 октября, сб
сб3023:00+12ю249789 2.9 1017239
02:00+12ююв1296100 3.3 1017137
05:00+11юв229534 0.2 101850
08:00+11в229118 0.4 101836
11:00+16юз12705 0.0 1019695
14:00+17зюз336653 0.1 1019956
17:00+15з118016 0.2 1020330
20:00+12в11921 0.2 102110